User: anonymous   Login
Location: B�hl
(48.6968°N, 8.1352°E)
Time: 00:06:07
(UTC+00:00)
Language:

USA 307 - Orbit

View from above orbital plane
View from above orbital plane
View from above satellite
View from above satellite

Ground track
Ground track

The orbit data is extracted from the following two-line orbital elements,

1 45875U 20046C   21130.86272047 0.00002100  00000-0  17391-3 0    04
2 45875  53.9792  68.6495 0007587   8.9560 351.0439 14.98397133    02
Epoch (UTC): 10 May 2021 20:42:19
Eccentricity: 0.0007587
inclination: 53.9792°
perigee height: 566 km
apogee height: 577 km
right ascension of ascending node: 68.6495°
argument of perigee: 8.9560°
revolutions per day: 14.98397133
mean anomaly at epoch: 351.0439°
orbit number at epoch: 0

The dashed part of the orbit path shows where the satellite is in the earth's shadow,  

DLR